Year,Month,Day,Hour,Minute,Value (Times are PST for temperature in C)
2011,09,16,00,00,11.20
2011,09,16,00,01,11.30
2011,09,16,00,02,11.30
2011,09,16,00,03,11.30
2011,09,16,00,04,11.30
2011,09,16,00,05,11.30
2011,09,16,00,06,11.20
2011,09,16,00,07,11.20
2011,09,16,00,08,11.20
2011,09,16,00,09,11.20
2011,09,16,00,10,11.20
2011,09,16,00,11,11.20
2011,09,16,00,12,11.20
2011,09,16,00,13,11.10
2011,09,16,00,14,11.10
2011,09,16,00,15,11.10
2011,09,16,00,16,11.10
2011,09,16,00,17,11.10
2011,09,16,00,18,11.00
2011,09,16,00,19,10.90
2011,09,16,00,20,10.90
2011,09,16,00,21,10.90
2011,09,16,00,22,10.90
2011,09,16,00,23,10.90
2011,09,16,00,24,10.90
2011,09,16,00,25,10.80
2011,09,16,00,26,10.80
2011,09,16,00,27,10.80
2011,09,16,00,28,10.80
2011,09,16,00,29,10.90
2011,09,16,00,30,10.90
2011,09,16,00,31,10.90
2011,09,16,00,32,10.90
2011,09,16,00,33,10.90
2011,09,16,00,34,10.90
2011,09,16,00,35,10.90
2011,09,16,00,36,10.90
2011,09,16,00,37,10.90
2011,09,16,00,38,10.90
2011,09,16,00,39,10.90
2011,09,16,00,40,10.90
2011,09,16,00,41,10.90
2011,09,16,00,42,10.90
2011,09,16,00,43,10.90
2011,09,16,00,44,10.90
2011,09,16,00,45,10.90
2011,09,16,00,46,10.90
2011,09,16,00,47,10.80
2011,09,16,00,48,10.80
2011,09,16,00,49,10.80
2011,09,16,00,50,10.80
2011,09,16,00,51,10.80
2011,09,16,00,52,10.80
2011,09,16,00,53,10.80
2011,09,16,00,54,10.70
2011,09,16,00,55,10.70
2011,09,16,00,56,10.70
2011,09,16,00,57,10.70
2011,09,16,00,58,10.60
2011,09,16,00,59,10.60
2011,09,16,01,00,10.60
2011,09,16,01,01,10.60
2011,09,16,01,02,10.60
2011,09,16,01,03,10.60
2011,09,16,01,04,10.60
2011,09,16,01,05,10.60
2011,09,16,01,06,10.50
2011,09,16,01,07,10.40
2011,09,16,01,08,10.40
2011,09,16,01,09,10.40
2011,09,16,01,10,10.40
2011,09,16,01,11,10.40
2011,09,16,01,12,10.40
2011,09,16,01,13,10.40
2011,09,16,01,14,10.30
2011,09,16,01,15,10.30
2011,09,16,01,16,10.30
2011,09,16,01,17,10.30
2011,09,16,01,18,10.30
2011,09,16,01,19,10.30
2011,09,16,01,20,10.30
2011,09,16,01,21,10.30
2011,09,16,01,22,10.30
2011,09,16,01,23,10.30
2011,09,16,01,24,10.30
2011,09,16,01,25,10.30
2011,09,16,01,26,10.30
2011,09,16,01,27,10.40
2011,09,16,01,28,10.40
2011,09,16,01,29,10.40
2011,09,16,01,30,10.40
2011,09,16,01,31,10.40
2011,09,16,01,32,10.40
2011,09,16,01,33,10.40
2011,09,16,01,34,10.40
2011,09,16,01,35,10.40
2011,09,16,01,36,10.40
2011,09,16,01,37,10.30
2011,09,16,01,38,10.30
2011,09,16,01,39,10.30
2011,09,16,01,40,10.30
2011,09,16,01,41,10.20
2011,09,16,01,42,10.20
2011,09,16,01,43,10.20
2011,09,16,01,44,10.20
2011,09,16,01,45,10.20
2011,09,16,01,46,10.20
2011,09,16,01,47,10.20
2011,09,16,01,48,10.10
2011,09,16,01,49,10.10
2011,09,16,01,50,10.10
2011,09,16,01,51,10.10
2011,09,16,01,52,10.10
2011,09,16,01,53,10.10
2011,09,16,01,54,10.00
2011,09,16,01,55,9.90
2011,09,16,01,56,9.90
2011,09,16,01,57,9.90
2011,09,16,01,58,9.80
2011,09,16,01,59,9.80
2011,09,16,02,00,9.70
2011,09,16,02,01,9.70
2011,09,16,02,02,9.70
2011,09,16,02,03,9.60
2011,09,16,02,04,9.60
2011,09,16,02,05,9.50
2011,09,16,02,06,9.50
2011,09,16,02,07,9.40
2011,09,16,02,08,9.40
2011,09,16,02,09,9.40
2011,09,16,02,10,9.30
2011,09,16,02,11,9.30
2011,09,16,02,12,9.30
2011,09,16,02,13,9.20
2011,09,16,02,14,9.20
2011,09,16,02,15,9.20
2011,09,16,02,16,9.20
2011,09,16,02,17,9.20
2011,09,16,02,18,9.20
2011,09,16,02,19,9.20
2011,09,16,02,20,9.10
2011,09,16,02,21,9.10
2011,09,16,02,22,9.00
2011,09,16,02,23,9.00
2011,09,16,02,24,8.90
2011,09,16,02,25,8.90
2011,09,16,02,26,8.90
2011,09,16,02,27,8.80
2011,09,16,02,28,8.80
2011,09,16,02,29,8.80
2011,09,16,02,30,8.80
2011,09,16,02,31,8.80
2011,09,16,02,32,8.80
2011,09,16,02,33,8.80
2011,09,16,02,34,8.80
2011,09,16,02,35,8.70
2011,09,16,02,36,8.70
2011,09,16,02,37,8.70
2011,09,16,02,38,8.70
2011,09,16,02,39,8.70
2011,09,16,02,40,8.70
2011,09,16,02,41,8.60
2011,09,16,02,42,8.60
2011,09,16,02,43,8.50
2011,09,16,02,44,8.50
2011,09,16,02,45,8.40
2011,09,16,02,46,8.40
2011,09,16,02,47,8.40
2011,09,16,02,48,8.30
2011,09,16,02,49,8.30
2011,09,16,02,50,8.30
2011,09,16,02,51,8.20
2011,09,16,02,52,8.20
2011,09,16,02,53,8.20
2011,09,16,02,54,8.20
2011,09,16,02,55,8.10
2011,09,16,02,56,8.10
2011,09,16,02,57,8.00
2011,09,16,02,58,8.00
2011,09,16,02,59,7.90
2011,09,16,03,00,7.90
2011,09,16,03,01,7.90
2011,09,16,03,02,7.80
2011,09,16,03,03,7.80
2011,09,16,03,04,7.80
2011,09,16,03,05,7.80
2011,09,16,03,06,7.70
2011,09,16,03,07,7.70
2011,09,16,03,08,7.70
2011,09,16,03,09,7.70
2011,09,16,03,10,7.60
2011,09,16,03,11,7.60
2011,09,16,03,12,7.60
2011,09,16,03,13,7.60
2011,09,16,03,14,7.60
2011,09,16,03,15,7.60
2011,09,16,03,16,7.60
2011,09,16,03,17,7.60
2011,09,16,03,18,7.70
2011,09,16,03,19,7.70
2011,09,16,03,20,7.70
2011,09,16,03,21,7.70
2011,09,16,03,22,7.60
2011,09,16,03,23,7.60
2011,09,16,03,24,7.60
2011,09,16,03,25,7.60
2011,09,16,03,26,7.50
2011,09,16,03,27,7.50
2011,09,16,03,28,7.40
2011,09,16,03,29,7.40
2011,09,16,03,30,7.30
2011,09,16,03,31,7.30
2011,09,16,03,32,7.30
2011,09,16,03,33,7.30
2011,09,16,03,34,7.30
2011,09,16,03,35,7.30
2011,09,16,03,36,7.30
2011,09,16,03,37,7.30
2011,09,16,03,38,7.30
2011,09,16,03,39,7.30
2011,09,16,03,40,7.30
2011,09,16,03,41,7.30
2011,09,16,03,42,7.30
2011,09,16,03,43,7.30
2011,09,16,03,44,7.30
2011,09,16,03,45,7.30
2011,09,16,03,46,7.30
2011,09,16,03,47,7.30
2011,09,16,03,48,7.30
2011,09,16,03,49,7.30
2011,09,16,03,50,7.30
2011,09,16,03,51,7.30
2011,09,16,03,52,7.30
2011,09,16,03,53,7.30
2011,09,16,03,54,7.30
2011,09,16,03,55,7.30
2011,09,16,03,56,7.40
2011,09,16,03,57,7.40
2011,09,16,03,58,7.40
2011,09,16,03,59,7.40
2011,09,16,04,00,7.40
2011,09,16,04,01,7.40
2011,09,16,04,02,7.30
2011,09,16,04,03,7.30
2011,09,16,04,04,7.30
2011,09,16,04,05,7.30
2011,09,16,04,06,7.30
2011,09,16,04,07,7.30
2011,09,16,04,08,7.30
2011,09,16,04,09,7.30
2011,09,16,04,10,7.30
2011,09,16,04,11,7.30
2011,09,16,04,12,7.30
2011,09,16,04,13,7.20
2011,09,16,04,14,7.20
2011,09,16,04,15,7.20
2011,09,16,04,16,7.20
2011,09,16,04,17,7.10
2011,09,16,04,18,7.10
2011,09,16,04,19,7.10
2011,09,16,04,20,7.00
2011,09,16,04,21,7.00
2011,09,16,04,22,7.00
2011,09,16,04,23,7.00
2011,09,16,04,24,7.00
2011,09,16,04,25,7.00
2011,09,16,04,26,6.90
2011,09,16,04,27,6.90
2011,09,16,04,28,6.90
2011,09,16,04,29,6.90
2011,09,16,04,30,6.90
2011,09,16,04,31,6.90
2011,09,16,04,32,7.00
2011,09,16,04,33,7.00
2011,09,16,04,34,7.00
2011,09,16,04,35,7.00
2011,09,16,04,36,7.00
2011,09,16,04,37,7.00
2011,09,16,04,38,7.00
2011,09,16,04,39,7.00
2011,09,16,04,40,7.00
2011,09,16,04,41,7.00
2011,09,16,04,42,7.00
2011,09,16,04,43,7.00
2011,09,16,04,44,7.10
2011,09,16,04,45,7.10
2011,09,16,04,46,7.10
2011,09,16,04,47,7.10
2011,09,16,04,48,7.10
2011,09,16,04,49,7.00
2011,09,16,04,50,7.00
2011,09,16,04,51,7.00
2011,09,16,04,52,7.00
2011,09,16,04,53,7.00
2011,09,16,04,54,6.90
2011,09,16,04,55,6.90
2011,09,16,04,56,6.90
2011,09,16,04,57,6.90
2011,09,16,04,58,6.80
2011,09,16,04,59,6.80
2011,09,16,05,00,6.80
2011,09,16,05,01,6.80
2011,09,16,05,02,6.80
2011,09,16,05,03,6.80
2011,09,16,05,04,6.80
2011,09,16,05,05,6.80
2011,09,16,05,06,6.80
2011,09,16,05,07,6.70
2011,09,16,05,08,6.70
2011,09,16,05,09,6.70
2011,09,16,05,10,6.70
2011,09,16,05,11,6.70
2011,09,16,05,12,6.70
2011,09,16,05,13,6.70
2011,09,16,05,14,6.70
2011,09,16,05,15,6.60
2011,09,16,05,16,6.60
2011,09,16,05,17,6.60
2011,09,16,05,18,6.60
2011,09,16,05,19,6.60
2011,09,16,05,20,6.60
2011,09,16,05,21,6.60
2011,09,16,05,22,6.60
2011,09,16,05,23,6.50
2011,09,16,05,24,6.40
2011,09,16,05,25,6.40
2011,09,16,05,26,6.40
2011,09,16,05,27,6.40
2011,09,16,05,28,6.40
2011,09,16,05,29,6.30
2011,09,16,05,30,6.30
2011,09,16,05,31,6.30
2011,09,16,05,32,6.30
2011,09,16,05,33,6.30
2011,09,16,05,34,6.20
2011,09,16,05,35,6.20
2011,09,16,05,36,6.20
2011,09,16,05,37,6.20
2011,09,16,05,38,6.20
2011,09,16,05,39,6.20
2011,09,16,05,40,6.20
2011,09,16,05,41,6.20
2011,09,16,05,42,6.20
2011,09,16,05,43,6.20
2011,09,16,05,44,6.20
2011,09,16,05,45,6.20
2011,09,16,05,46,6.20
2011,09,16,05,47,6.10
2011,09,16,05,48,6.10
2011,09,16,05,49,6.10
2011,09,16,05,50,6.10
2011,09,16,05,51,6.10
2011,09,16,05,52,6.10
2011,09,16,05,53,6.10
2011,09,16,05,54,6.10
2011,09,16,05,55,6.10
2011,09,16,05,56,6.10
2011,09,16,05,57,6.10
2011,09,16,05,58,6.10
2011,09,16,05,59,6.10
2011,09,16,06,00,6.10
2011,09,16,06,01,6.10
2011,09,16,06,02,6.10
2011,09,16,06,03,6.10
2011,09,16,06,04,6.10
2011,09,16,06,05,6.10
2011,09,16,06,06,6.10
2011,09,16,06,07,6.10
2011,09,16,06,08,6.10
2011,09,16,06,09,6.10
2011,09,16,06,10,6.10
2011,09,16,06,11,6.20
2011,09,16,06,12,6.20
2011,09,16,06,13,6.20
2011,09,16,06,14,6.20
2011,09,16,06,15,6.20
2011,09,16,06,16,6.10
2011,09,16,06,17,6.10
2011,09,16,06,18,6.10
2011,09,16,06,19,6.10
2011,09,16,06,20,6.10
2011,09,16,06,21,6.10
2011,09,16,06,22,6.10
2011,09,16,06,23,6.10
2011,09,16,06,24,6.10
2011,09,16,06,25,6.10
2011,09,16,06,26,6.10
2011,09,16,06,27,6.10
2011,09,16,06,28,6.10
2011,09,16,06,29,6.10
2011,09,16,06,30,6.10
2011,09,16,06,31,6.10
2011,09,16,06,32,6.10
2011,09,16,06,33,6.10
2011,09,16,06,34,6.10
2011,09,16,06,35,6.10
2011,09,16,06,36,6.10
2011,09,16,06,37,6.00
2011,09,16,06,38,6.00
2011,09,16,06,39,6.00
2011,09,16,06,40,6.00
2011,09,16,06,41,6.00
2011,09,16,06,42,6.00
2011,09,16,06,43,6.00
2011,09,16,06,44,6.00
2011,09,16,06,45,5.90
2011,09,16,06,46,5.90
2011,09,16,06,47,5.90
2011,09,16,06,48,5.90
2011,09,16,06,49,5.90
2011,09,16,06,50,5.90
2011,09,16,06,51,5.90
2011,09,16,06,52,5.90
2011,09,16,06,53,5.90
2011,09,16,06,54,5.90
2011,09,16,06,55,5.90
2011,09,16,06,56,5.90
2011,09,16,06,57,5.90
2011,09,16,06,58,5.90
2011,09,16,06,59,5.90
2011,09,16,07,00,5.90
2011,09,16,07,01,5.90
2011,09,16,07,02,5.90
2011,09,16,07,03,5.90
2011,09,16,07,04,5.90
2011,09,16,07,05,5.90
2011,09,16,07,06,5.90
2011,09,16,07,07,5.90
2011,09,16,07,08,5.90
2011,09,16,07,09,5.90
2011,09,16,07,10,5.90
2011,09,16,07,11,5.90
2011,09,16,07,12,5.90
2011,09,16,07,13,5.90
2011,09,16,07,14,5.90
2011,09,16,07,15,5.90
2011,09,16,07,16,5.90
2011,09,16,07,17,6.00
2011,09,16,07,18,6.00
2011,09,16,07,19,6.00
2011,09,16,07,20,6.00
2011,09,16,07,21,6.00
2011,09,16,07,22,6.00
2011,09,16,07,23,6.00
2011,09,16,07,24,6.10
2011,09,16,07,25,6.10
2011,09,16,07,26,6.10
2011,09,16,07,27,6.10
2011,09,16,07,28,6.10
2011,09,16,07,29,6.10
2011,09,16,07,30,6.20
2011,09,16,07,31,6.20
2011,09,16,07,32,6.20
2011,09,16,07,33,6.20
2011,09,16,07,34,6.20
2011,09,16,07,35,6.20
2011,09,16,07,36,6.20
2011,09,16,07,37,6.20
2011,09,16,07,38,6.20
2011,09,16,07,39,6.30
2011,09,16,07,40,6.30
2011,09,16,07,41,6.30
2011,09,16,07,42,6.40
2011,09,16,07,43,6.40
2011,09,16,07,44,6.40
2011,09,16,07,45,6.40
2011,09,16,07,46,6.50
2011,09,16,07,47,6.60
2011,09,16,07,48,6.60
2011,09,16,07,49,6.60
2011,09,16,07,50,6.60
2011,09,16,07,51,6.70
2011,09,16,07,52,6.70
2011,09,16,07,53,6.70
2011,09,16,07,54,6.70
2011,09,16,07,55,6.70
2011,09,16,07,56,6.70
2011,09,16,07,57,6.70
2011,09,16,07,58,6.80
2011,09,16,07,59,6.90
2011,09,16,08,00,6.90
2011,09,16,08,01,6.90
2011,09,16,08,02,7.00
2011,09,16,08,03,7.00
2011,09,16,08,04,7.00
2011,09,16,08,05,7.00
2011,09,16,08,06,7.10
2011,09,16,08,07,7.10
2011,09,16,08,08,7.20
2011,09,16,08,09,7.20
2011,09,16,08,10,7.20
2011,09,16,08,11,7.30
2011,09,16,08,12,7.30
2011,09,16,08,13,7.30
2011,09,16,08,14,7.30
2011,09,16,08,15,7.30
2011,09,16,08,16,7.30
2011,09,16,08,17,7.40
2011,09,16,08,18,7.40
2011,09,16,08,19,7.50
2011,09,16,08,20,7.50
2011,09,16,08,21,7.60
2011,09,16,08,22,7.60
2011,09,16,08,23,7.70
2011,09,16,08,24,7.70
2011,09,16,08,25,7.80
2011,09,16,08,26,7.80
2011,09,16,08,27,7.80
2011,09,16,08,28,7.90
2011,09,16,08,29,7.90
2011,09,16,08,30,7.90
2011,09,16,08,31,7.90
2011,09,16,08,32,7.90
2011,09,16,08,33,8.00
2011,09,16,08,34,8.00
2011,09,16,08,35,8.00
2011,09,16,08,36,8.00
2011,09,16,08,37,8.10
2011,09,16,08,38,8.10
2011,09,16,08,39,8.10
2011,09,16,08,40,8.20
2011,09,16,08,41,8.20
2011,09,16,08,42,8.20
2011,09,16,08,43,8.20
2011,09,16,08,44,8.20
2011,09,16,08,45,8.20
2011,09,16,08,46,8.20
2011,09,16,08,47,8.20
2011,09,16,08,48,8.30
2011,09,16,08,49,8.30
2011,09,16,08,50,8.30
2011,09,16,08,51,8.40
2011,09,16,08,52,8.40
2011,09,16,08,53,8.40
2011,09,16,08,54,8.50
2011,09,16,08,55,8.50
2011,09,16,08,56,8.60
2011,09,16,08,57,8.60
2011,09,16,08,58,8.60
2011,09,16,08,59,8.70
2011,09,16,09,00,8.70
2011,09,16,09,01,8.70
2011,09,16,09,02,8.80
2011,09,16,09,03,8.80
2011,09,16,09,04,8.90
2011,09,16,09,05,8.90
2011,09,16,09,06,8.90
2011,09,16,09,07,9.00
2011,09,16,09,08,9.00
2011,09,16,09,09,9.10
2011,09,16,09,10,9.10
2011,09,16,09,11,9.20
2011,09,16,09,12,9.20
2011,09,16,09,13,9.20
2011,09,16,09,14,9.20
2011,09,16,09,15,9.30
2011,09,16,09,16,9.30
2011,09,16,09,17,9.40
2011,09,16,09,18,9.40
2011,09,16,09,19,9.50
2011,09,16,09,20,9.60
2011,09,16,09,21,9.60
2011,09,16,09,22,9.70
2011,09,16,09,23,9.70
2011,09,16,09,24,9.80
2011,09,16,09,25,9.90
2011,09,16,09,26,9.90
2011,09,16,09,27,10.00
2011,09,16,09,28,10.10
2011,09,16,09,29,10.10
2011,09,16,09,30,10.20
2011,09,16,09,31,10.20
2011,09,16,09,32,10.30
2011,09,16,09,33,10.40
2011,09,16,09,34,10.50
2011,09,16,09,35,10.60
2011,09,16,09,36,10.70
2011,09,16,09,37,10.80
2011,09,16,09,38,10.90
2011,09,16,09,39,10.90
2011,09,16,09,40,11.00
2011,09,16,09,41,11.10
2011,09,16,09,42,11.20
2011,09,16,09,43,11.20
2011,09,16,09,44,11.30
2011,09,16,09,45,11.40
2011,09,16,09,46,11.50
2011,09,16,09,47,11.60
2011,09,16,09,48,11.60
2011,09,16,09,49,11.70
2011,09,16,09,50,11.80
2011,09,16,09,51,11.90
2011,09,16,09,52,12.00
2011,09,16,09,53,12.10
2011,09,16,09,54,12.20
2011,09,16,09,55,12.30
2011,09,16,09,56,12.30
2011,09,16,09,57,12.40
2011,09,16,09,58,12.50
2011,09,16,09,59,12.60
2011,09,16,10,00,12.60
2011,09,16,10,01,12.70
2011,09,16,10,02,12.70
2011,09,16,10,03,12.70
2011,09,16,10,04,12.70
2011,09,16,10,05,12.80
2011,09,16,10,06,12.80
2011,09,16,10,07,12.80
2011,09,16,10,08,12.80
2011,09,16,10,09,12.80
2011,09,16,10,10,12.80
2011,09,16,10,11,12.80
2011,09,16,10,12,12.80
2011,09,16,10,13,12.90
2011,09,16,10,14,12.90
2011,09,16,10,15,13.00
2011,09,16,10,16,13.10
2011,09,16,10,17,13.10
2011,09,16,10,18,13.10
2011,09,16,10,19,13.10
2011,09,16,10,20,13.10
2011,09,16,10,21,13.10
2011,09,16,10,22,13.10
2011,09,16,10,23,13.10
2011,09,16,10,24,13.20
2011,09,16,10,25,13.30
2011,09,16,10,26,13.30
2011,09,16,10,27,13.30
2011,09,16,10,28,13.40
2011,09,16,10,29,13.50
2011,09,16,10,30,13.60
2011,09,16,10,31,13.60
2011,09,16,10,32,13.60
2011,09,16,10,33,13.60
2011,09,16,10,34,13.70
2011,09,16,10,35,13.70
2011,09,16,10,36,13.70
2011,09,16,10,37,13.70
2011,09,16,10,38,13.70
2011,09,16,10,39,13.70
2011,09,16,10,40,13.70
2011,09,16,10,41,13.70
2011,09,16,10,42,13.70
2011,09,16,10,43,13.70
2011,09,16,10,44,13.70
2011,09,16,10,45,13.70
2011,09,16,10,46,13.70
2011,09,16,10,47,13.70
2011,09,16,10,48,13.70
2011,09,16,10,49,13.70
2011,09,16,10,50,13.70
2011,09,16,10,51,13.80
2011,09,16,10,52,13.80
2011,09,16,10,53,13.90
2011,09,16,10,54,13.90
2011,09,16,10,55,14.00
2011,09,16,10,56,14.00
2011,09,16,10,57,14.10
2011,09,16,10,58,14.10
2011,09,16,10,59,14.10
2011,09,16,11,00,14.10
2011,09,16,11,01,14.10
2011,09,16,11,02,14.10
2011,09,16,11,03,14.00
2011,09,16,11,04,14.00
2011,09,16,11,05,14.00
2011,09,16,11,06,14.00
2011,09,16,11,07,14.00
2011,09,16,11,08,14.00
2011,09,16,11,09,14.00
2011,09,16,11,10,13.90
2011,09,16,11,11,13.90
2011,09,16,11,12,13.90
2011,09,16,11,13,13.90
2011,09,16,11,14,13.90
2011,09,16,11,15,14.00
2011,09,16,11,16,14.00
2011,09,16,11,17,14.10
2011,09,16,11,18,14.20
2011,09,16,11,19,14.20
2011,09,16,11,20,14.20
2011,09,16,11,21,14.20
2011,09,16,11,22,14.20
2011,09,16,11,23,14.20
2011,09,16,11,24,14.30
2011,09,16,11,25,14.30
2011,09,16,11,26,14.40
2011,09,16,11,27,14.40
2011,09,16,11,28,14.50
2011,09,16,11,29,14.50
2011,09,16,11,30,14.50
2011,09,16,11,31,14.60
2011,09,16,11,32,14.60
2011,09,16,11,33,14.70
2011,09,16,11,34,14.80
2011,09,16,11,35,14.80
2011,09,16,11,36,14.80
2011,09,16,11,37,14.90
2011,09,16,11,38,14.90
2011,09,16,11,39,14.90
2011,09,16,11,40,14.90
2011,09,16,11,41,14.90
2011,09,16,11,42,14.90
2011,09,16,11,43,14.80
2011,09,16,11,44,14.80
2011,09,16,11,45,14.80
2011,09,16,11,46,14.80
2011,09,16,11,47,14.80
2011,09,16,11,48,14.80
2011,09,16,11,49,14.80
2011,09,16,11,50,14.80
2011,09,16,11,51,14.90
2011,09,16,11,52,14.90
2011,09,16,11,53,14.90
2011,09,16,11,54,14.80
2011,09,16,11,55,14.80
2011,09,16,11,56,14.80
2011,09,16,11,57,14.70
2011,09,16,11,58,14.70
2011,09,16,11,59,14.60
2011,09,16,12,00,14.60
2011,09,16,12,01,14.50
2011,09,16,12,02,14.50
2011,09,16,12,03,14.50
2011,09,16,12,04,14.40
2011,09,16,12,05,14.40
2011,09,16,12,06,14.40
2011,09,16,12,07,14.40
2011,09,16,12,08,14.40
2011,09,16,12,09,14.40
2011,09,16,12,10,14.50
2011,09,16,12,11,14.50
2011,09,16,12,12,14.50
2011,09,16,12,13,14.50
2011,09,16,12,14,14.50
2011,09,16,12,15,14.50
2011,09,16,12,16,14.50
2011,09,16,12,17,14.50
2011,09,16,12,18,14.60
2011,09,16,12,19,14.60
2011,09,16,12,20,14.70
2011,09,16,12,21,14.70
2011,09,16,12,22,14.70
2011,09,16,12,23,14.70
2011,09,16,12,24,14.70
2011,09,16,12,25,14.70
2011,09,16,12,26,14.70
2011,09,16,12,27,14.70
2011,09,16,12,28,14.70
2011,09,16,12,29,14.70
2011,09,16,12,30,14.70
2011,09,16,12,31,14.70
2011,09,16,12,32,14.70
2011,09,16,12,33,14.70
2011,09,16,12,34,14.70
2011,09,16,12,35,14.70
2011,09,16,12,36,14.80
2011,09,16,12,37,14.80
2011,09,16,12,38,14.80
2011,09,16,12,39,14.80
2011,09,16,12,40,14.80
2011,09,16,12,41,14.80
2011,09,16,12,42,14.80
2011,09,16,12,43,14.80
2011,09,16,12,44,14.80
2011,09,16,12,45,14.80
2011,09,16,12,46,14.80
2011,09,16,12,47,14.90
2011,09,16,12,48,14.90
2011,09,16,12,49,14.90
2011,09,16,12,50,14.90
2011,09,16,12,51,14.90
2011,09,16,12,52,15.00
2011,09,16,12,53,15.00
2011,09,16,12,54,15.00
2011,09,16,12,55,15.00
2011,09,16,12,56,15.00
2011,09,16,12,57,14.90
2011,09,16,12,58,14.90
2011,09,16,12,59,14.90
2011,09,16,13,00,14.80
2011,09,16,13,01,14.80
2011,09,16,13,02,14.80
2011,09,16,13,03,14.80
2011,09,16,13,04,14.70
2011,09,16,13,05,14.70
2011,09,16,13,06,14.70
2011,09,16,13,07,14.70
2011,09,16,13,08,14.70
2011,09,16,13,09,14.70
2011,09,16,13,10,14.60
2011,09,16,13,11,14.60
2011,09,16,13,12,14.60
2011,09,16,13,13,14.50
2011,09,16,13,14,14.50
2011,09,16,13,15,14.40
2011,09,16,13,16,14.40
2011,09,16,13,17,14.40
2011,09,16,13,18,14.30
2011,09,16,13,19,14.30
2011,09,16,13,20,14.30
2011,09,16,13,21,14.30
2011,09,16,13,22,14.30
2011,09,16,13,23,14.30
2011,09,16,13,24,14.20
2011,09,16,13,25,14.20
2011,09,16,13,26,14.20
2011,09,16,13,27,14.20
2011,09,16,13,28,14.20
2011,09,16,13,29,14.20
2011,09,16,13,30,14.20
2011,09,16,13,31,14.20
2011,09,16,13,32,14.20
2011,09,16,13,33,14.20
2011,09,16,13,34,14.20
2011,09,16,13,35,14.20
2011,09,16,13,36,14.20
2011,09,16,13,37,14.20
2011,09,16,13,38,14.20
2011,09,16,13,39,14.20
2011,09,16,13,40,14.20
2011,09,16,13,41,14.20
2011,09,16,13,42,14.20
2011,09,16,13,43,14.20
2011,09,16,13,44,14.20
2011,09,16,13,45,14.20
2011,09,16,13,46,14.20
2011,09,16,13,47,14.20
2011,09,16,13,48,14.20
2011,09,16,13,49,14.20
2011,09,16,13,50,14.30
2011,09,16,13,51,14.30
2011,09,16,13,52,14.30
2011,09,16,13,53,14.30
2011,09,16,13,54,14.30
2011,09,16,13,55,14.30
2011,09,16,13,56,14.20
2011,09,16,13,57,14.20
2011,09,16,13,58,14.20
2011,09,16,13,59,14.20
2011,09,16,14,00,14.20
2011,09,16,14,01,14.20
2011,09,16,14,02,14.20
2011,09,16,14,03,14.20
2011,09,16,14,04,14.20
2011,09,16,14,05,14.20
2011,09,16,14,06,14.20
2011,09,16,14,07,14.20
2011,09,16,14,08,14.20
2011,09,16,14,09,14.20
2011,09,16,14,10,14.20
2011,09,16,14,11,14.20
2011,09,16,14,12,14.20
2011,09,16,14,13,14.20
2011,09,16,14,14,14.20
2011,09,16,14,15,14.20
2011,09,16,14,16,14.30
2011,09,16,14,17,14.30
2011,09,16,14,18,14.30
2011,09,16,14,19,14.40
2011,09,16,14,20,14.40
2011,09,16,14,21,14.50
2011,09,16,14,22,14.50
2011,09,16,14,23,14.60
2011,09,16,14,24,14.70
2011,09,16,14,25,14.70
2011,09,16,14,26,14.80
2011,09,16,14,27,14.80
2011,09,16,14,28,14.80
2011,09,16,14,29,14.70
2011,09,16,14,30,14.70
2011,09,16,14,31,14.70
2011,09,16,14,32,14.70
2011,09,16,14,33,14.60
2011,09,16,14,34,14.60
2011,09,16,14,35,14.60
2011,09,16,14,36,14.60
2011,09,16,14,37,14.60
2011,09,16,14,38,14.60
2011,09,16,14,39,14.60
2011,09,16,14,40,14.60
2011,09,16,14,41,14.60
2011,09,16,14,42,14.60
2011,09,16,14,43,14.60
2011,09,16,14,44,14.70
2011,09,16,14,45,14.70
2011,09,16,14,46,14.70
2011,09,16,14,47,14.60
2011,09,16,14,48,14.60
2011,09,16,14,49,14.60
2011,09,16,14,50,14.50
2011,09,16,14,51,14.50
2011,09,16,14,52,14.40
2011,09,16,14,53,14.30
2011,09,16,14,54,14.20
2011,09,16,14,55,14.20
2011,09,16,14,56,14.20
2011,09,16,14,57,14.10
2011,09,16,14,58,14.10
2011,09,16,14,59,14.00
2011,09,16,15,00,14.00
2011,09,16,15,01,14.00
2011,09,16,15,02,13.90
2011,09,16,15,03,14.00
2011,09,16,15,04,14.00
2011,09,16,15,05,14.00
2011,09,16,15,06,14.10
2011,09,16,15,07,14.20
2011,09,16,15,08,14.20
2011,09,16,15,09,14.40
2011,09,16,15,10,14.50
2011,09,16,15,11,14.60
2011,09,16,15,12,14.70
2011,09,16,15,13,14.80
2011,09,16,15,14,14.90
2011,09,16,15,15,15.10
2011,09,16,15,16,15.20
2011,09,16,15,17,15.30
2011,09,16,15,18,15.50
2011,09,16,15,19,15.60
2011,09,16,15,20,15.60
2011,09,16,15,21,15.70
2011,09,16,15,22,15.80
2011,09,16,15,23,15.80
2011,09,16,15,24,15.90
2011,09,16,15,25,16.00
2011,09,16,15,26,16.10
2011,09,16,15,27,16.10
2011,09,16,15,28,16.10
2011,09,16,15,29,16.00
2011,09,16,15,30,15.90
2011,09,16,15,31,15.80
2011,09,16,15,32,15.80
2011,09,16,15,33,15.80
2011,09,16,15,34,15.70
2011,09,16,15,35,15.60
2011,09,16,15,36,15.50
2011,09,16,15,37,15.40
2011,09,16,15,38,15.40
2011,09,16,15,39,15.40
2011,09,16,15,40,15.40
2011,09,16,15,41,15.30
2011,09,16,15,42,15.30
2011,09,16,15,43,15.30
2011,09,16,15,44,15.30
2011,09,16,15,45,15.30
2011,09,16,15,46,15.20
2011,09,16,15,47,15.20
2011,09,16,15,48,15.20
2011,09,16,15,49,15.20
2011,09,16,15,50,15.20
2011,09,16,15,51,15.20
2011,09,16,15,52,15.20
2011,09,16,15,53,15.20
2011,09,16,15,54,15.20
2011,09,16,15,55,15.20
2011,09,16,15,56,15.20
2011,09,16,15,57,15.20
2011,09,16,15,58,15.20
2011,09,16,15,59,15.20
2011,09,16,16,00,15.20
2011,09,16,16,01,15.20
2011,09,16,16,02,15.20
2011,09,16,16,03,15.20
2011,09,16,16,04,15.20
2011,09,16,16,05,15.20
2011,09,16,16,06,15.20
2011,09,16,16,07,15.30
2011,09,16,16,08,15.30
2011,09,16,16,09,15.30
2011,09,16,16,10,15.30
2011,09,16,16,11,15.30
2011,09,16,16,12,15.30
2011,09,16,16,13,15.30
2011,09,16,16,14,15.30
2011,09,16,16,15,15.30
2011,09,16,16,16,15.30
2011,09,16,16,17,15.30
2011,09,16,16,18,15.30
2011,09,16,16,19,15.30
2011,09,16,16,20,15.30
2011,09,16,16,21,15.30
2011,09,16,16,22,15.30
2011,09,16,16,23,15.30
2011,09,16,16,24,15.30
2011,09,16,16,25,15.30
2011,09,16,16,26,15.30
2011,09,16,16,27,15.30
2011,09,16,16,28,15.30
2011,09,16,16,29,15.30
2011,09,16,16,30,15.30
2011,09,16,16,31,15.30
2011,09,16,16,32,15.30
2011,09,16,16,33,15.30
2011,09,16,16,34,15.40
2011,09,16,16,35,15.40
2011,09,16,16,36,15.40
2011,09,16,16,37,15.50
2011,09,16,16,38,15.50
2011,09,16,16,39,15.50
2011,09,16,16,40,15.50
2011,09,16,16,41,15.50
2011,09,16,16,42,15.50
2011,09,16,16,43,15.50
2011,09,16,16,44,15.50
2011,09,16,16,45,15.60
2011,09,16,16,46,15.60
2011,09,16,16,47,15.60
2011,09,16,16,48,15.70
2011,09,16,16,49,15.70
2011,09,16,16,50,15.70
2011,09,16,16,51,15.70
2011,09,16,16,52,15.70
2011,09,16,16,53,15.70
2011,09,16,16,54,15.80
2011,09,16,16,55,15.80
2011,09,16,16,56,15.80
2011,09,16,16,57,15.80
2011,09,16,16,58,15.70
2011,09,16,16,59,15.70
2011,09,16,17,00,15.70
2011,09,16,17,01,15.60
2011,09,16,17,02,15.60
2011,09,16,17,03,15.60
2011,09,16,17,04,15.60
2011,09,16,17,05,15.60
2011,09,16,17,06,15.70
2011,09,16,17,07,15.70
2011,09,16,17,08,15.70
2011,09,16,17,09,15.80
2011,09,16,17,10,15.80
2011,09,16,17,11,15.70
2011,09,16,17,12,15.70
2011,09,16,17,13,15.70
2011,09,16,17,14,15.70
2011,09,16,17,15,15.70
2011,09,16,17,16,15.70
2011,09,16,17,17,15.70
2011,09,16,17,18,15.70
2011,09,16,17,19,15.70
2011,09,16,17,20,15.70
2011,09,16,17,21,15.70
2011,09,16,17,22,15.70
2011,09,16,17,23,15.70
2011,09,16,17,24,15.70
2011,09,16,17,25,15.60
2011,09,16,17,26,15.60
2011,09,16,17,27,15.60
2011,09,16,17,28,15.60
2011,09,16,17,29,15.60
2011,09,16,17,30,15.60
2011,09,16,17,31,15.60
2011,09,16,17,32,15.60
2011,09,16,17,33,15.50
2011,09,16,17,34,15.50
2011,09,16,17,35,15.50
2011,09,16,17,36,15.50
2011,09,16,17,37,15.50
2011,09,16,17,38,15.50
2011,09,16,17,39,15.50